KD8TSA Weather Reports


time (UTC)temp
C
wind
direction
speed
KPH
gust
KPH
rain 1hr
cm
rain 24hr
cm
rain mn
cm
humidity
%
barometer
mb
20260507070259 7 244 3.2 3.2 0.00 0.00 0.00 87 1013.1
20260507065756 7 210 0.0 0.0 0.00 0.00 0.00 87 1013.3
20260507065253 6 208 0.0 0.0 0.00 0.00 0.00 87 1013.5
20260507064750 6 190 0.0 0.0 0.00 0.00 0.00 87 1013.4
20260507064249 6 201 0.0 0.0 0.00 0.00 0.00 87 1013.2
20260507063746 6 198 0.0 0.0 0.00 0.00 0.00 87 1013.1
20260507063243 6 191 0.0 0.0 0.00 0.00 0.00 87 1013.2
20260507062740 6 175 0.0 0.0 0.00 0.00 0.00 86 1013.3
20260507062237 7 174 0.0 0.0 0.00 0.00 0.00 86 1013.1
20260507061735 7 192 1.6 1.6 0.00 0.00 0.00 86 1013.2
20260507061232 7 200 1.6 1.6 0.00 0.00 0.00 86 1013.2
20260507060730 7 214 1.6 1.6 0.00 0.00 0.00 86 1013.2
20260507060227 7 209 1.6 1.6 0.00 0.00 0.00 86 1013.3
20260507055723 7 218 0.0 0.0 0.00 0.00 0.00 87 1013.4
20260507055219 6 226 0.0 0.0 0.00 0.00 0.00 87 1013.3
20260507054715 6 169 0.0 0.0 0.00 0.00 0.00 87 1013.3
20260507054212 6 172 0.0 0.0 0.00 0.00 0.00 87 1013.3
20260507053709 6 205 0.0 0.0 0.00 0.00 0.00 86 1013.3
20260507053207 6 195 0.0 0.0 0.00 0.00 0.00 86 1013.5
20260507052706 7 174 0.0 0.0 0.00 0.00 0.00 85 1013.5
20260507052201 7 174 0.0 0.0 0.00 0.00 0.00 84 1013.4
20260507051700 7 186 0.0 0.0 0.00 0.00 0.00 84 1013.4
20260507051156 7 186 0.0 0.0 0.00 0.00 0.00 84 1013.7
20260507050653 7 193 0.0 0.0 0.00 0.00 0.00 85 1013.6
20260507050149 7 187 0.0 0.0 0.00 0.00 0.00 85 1013.7
20260507045646 7 199 0.0 0.0 0.00 0.00 0.00 85 1013.8
20260507045143 7 194 0.0 0.0 0.00 0.00 0.00 85 1013.7
20260507044640 7 195 0.0 0.0 0.00 0.00 0.00 85 1013.6
20260507044137 7 193 0.0 0.0 0.00 0.00 0.00 84 1013.8
20260507043633 7 198 0.0 0.0 0.00 0.00 0.00 84 1013.9
20260507043125 8 198 0.0 0.0 0.00 0.00 0.00 84 1013.8
20260507042621 8 227 0.0 0.0 0.00 0.00 0.00 84 1013.7
20260507042116 8 213 0.0 0.0 0.00 0.00 0.00 83 1013.6
20260507041613 8 187 0.0 0.0 0.00 0.00 0.00 83 1013.7
20260507041110 8 199 0.0 0.0 0.00 0.00 0.00 83 1013.7
20260507040606 8 190 0.0 0.0 0.00 0.00 0.00 83 1013.5
20260507035558 8 193 0.0 0.0 0.00 0.00 0.00 83 1013.8
20260507035055 8 200 1.6 1.6 0.00 0.00 0.00 83 1013.8
20260507034552 8 200 1.6 1.6 0.00 0.00 0.00 83 1013.8
20260507034050 8 203 0.0 0.0 0.00 0.00 0.00 83 1013.7
20260507033548 8 184 0.0 0.0 0.00 0.00 0.00 83 1013.8
20260507033044 8 195 0.0 0.0 0.00 0.00 0.00 83 1013.5
20260507032541 8 186 0.0 0.0 0.00 0.00 0.00 82 1013.5
20260507032037 8 189 1.6 1.6 0.00 0.00 0.00 82 1013.7
20260507031534 8 191 0.0 0.0 0.00 0.00 0.00 82 1013.6
20260507031031 8 190 0.0 0.0 0.00 0.00 0.00 82 1014.0
20260507030528 8 186 0.0 0.0 0.00 0.00 0.00 82 1014.0
20260507030026 8 196 0.0 0.0 0.00 0.00 0.00 82 1014.0
20260507025522 8 190 0.0 0.0 0.00 0.00 0.00 82 1013.7
20260507025020 8 180 0.0 0.0 0.00 0.00 0.00 82 1013.6
20260507024518 8 182 0.0 0.0 0.00 0.00 0.00 82 1013.9
20260507024014 8 177 0.0 0.0 0.00 0.00 0.00 81 1013.9
20260507023510 8 184 0.0 0.0 0.00 0.00 0.00 81 1013.7
20260507023009 8 175 0.0 0.0 0.00 0.00 0.00 80 1013.8
20260507022505 8 184 0.0 0.0 0.00 0.00 0.00 80 1013.8
20260507022001 8 181 0.0 0.0 0.00 0.00 0.00 80 1013.6
20260507021456 9 183 0.0 0.0 0.00 0.00 0.00 80 1013.6
20260507020953 9 183 0.0 0.0 0.00 0.00 0.00 79 1013.8
20260507020450 9 187 0.0 0.0 0.00 0.00 0.00 79 1013.5
20260507015947 10 185 0.0 0.0 0.00 0.00 0.00 78 1013.8
20260507015446 10 182 0.0 0.0 0.00 0.00 0.00 78 1013.5
20260507014942 10 176 0.0 0.0 0.00 0.00 0.00 77 1013.3
20260507014439 10 183 0.0 0.0 0.00 0.00 0.00 76 1013.4
20260507013935 10 183 0.0 0.0 0.00 0.00 0.00 76 1013.3
20260507013432 10 174 0.0 0.0 0.00 0.00 0.00 75 1013.0
20260507012929 10 164 0.0 0.0 0.00 0.00 0.00 74 1012.8
20260507012426 10 168 0.0 0.0 0.00 0.00 0.00 74 1013.0
20260507011922 10 182 1.6 1.6 0.00 0.00 0.00 73 1013.2
20260507011420 11 181 0.0 0.0 0.00 0.00 0.00 73 1013.2
20260507010914 11 178 0.0 1.6 0.00 0.00 0.00 72 1013.0
20260507010409 11 185 0.0 0.0 0.00 0.00 0.00 72 1013.2
20260507005907 11 175 1.6 1.6 0.00 0.00 0.00 71 1012.9
20260507005403 11 185 1.6 3.2 0.00 0.00 0.00 71 1013.2
20260507004900 11 128 1.6 1.6 0.00 0.00 0.00 70 1013.1
20260507004357 11 150 3.2 4.8 0.00 0.00 0.00 69 1013.0
20260507003855 11 184 3.2 4.8 0.00 0.00 0.00 69 1013.2
20260507003350 11 73 1.6 3.2 0.00 0.00 0.00 68 1012.9
20260507002845 12 287 4.8 8.0 0.00 0.00 0.00 68 1013.0
20260507002341 12 359 6.4 9.7 0.00 0.00 0.00 67 1013.1
20260507001839 12 164 6.4 8.0 0.00 0.00 0.00 66 1012.8
20260507001335 12 324 6.4 9.7 0.00 0.00 0.00 66 1012.7
20260507000831 12 282 4.8 8.0 0.00 0.00 0.00 66 1012.5
20260507000328 12 233 1.6 3.2 0.00 0.00 0.00 66 1012.3
20260506235824 12 270 6.4 8.0 0.00 0.00 0.00 66 1012.3
20260506235321 12 166 4.8 9.7 0.00 0.00 0.00 66 1012.0
20260506234817 12 258 3.2 3.2 0.00 0.00 0.00 67 1012.3
20260506234315 12 140 1.6 3.2 0.00 0.00 0.00 67 1012.0
20260506233812 12 147 3.2 4.8 0.00 0.00 0.00 67 1012.2
20260506233308 12 266 1.6 3.2 0.00 0.00 0.00 67 1012.0
20260506232805 12 176 3.2 4.8 0.00 0.00 0.00 67 1011.9
20260506232300 12 169 6.4 11.3 0.00 0.00 0.00 66 1011.9
20260506231757 12 276 6.4 9.7 0.00 0.00 0.00 67 1011.9
20260506231255 12 311 4.8 8.0 0.00 0.00 0.00 66 1012.1
20260506230752 12 328 11.3 16.1 0.00 0.00 0.00 66 1012.2
20260506230249 12 77 4.8 8.0 0.00 0.00 0.00 67 1012.4
20260506225745 13 333 8.0 9.7 0.00 0.00 0.00 67 1012.2
20260506225242 13 331 6.4 9.7 0.00 0.00 0.00 67 1012.3
20260506224733 13 2 6.4 9.7 0.00 0.00 0.00 67 1012.1
20260506224231 13 2 4.8 8.0 0.00 0.00 0.00 67 1012.3
20260506223727 13 272 8.0 9.7 0.00 0.00 0.00 67 1012.3
20260506223222 13 249 3.2 4.8 0.00 0.00 0.00 67 1012.3
20260506222720 13 299 8.0 9.7 0.00 0.00 0.00 67 1012.7
20260506222214 13 29 3.2 3.2 0.00 0.00 0.00 67 1012.6
20260506221713 13 320 11.3 14.5 0.00 0.00 0.00 67 1012.6
20260506221210 13 192 6.4 8.0 0.00 0.00 0.00 67 1012.2
20260506220707 13 45 9.7 11.3 0.00 0.00 0.00 66 1012.4
20260506220203 13 327 4.8 4.8 0.00 0.00 0.00 67 1012.6
20260506215700 13 282 3.2 4.8 0.00 0.00 0.00 67 1012.5
20260506215154 13 196 3.2 3.2 0.00 0.00 0.00 65 1012.4
20260506214652 13 326 3.2 3.2 0.00 0.00 0.00 65 1012.2
20260506214149 13 324 8.0 9.7 0.00 0.00 0.00 65 1012.1
20260506213647 13 77 4.8 4.8 0.00 0.00 0.00 65 1012.0
20260506213144 14 269 4.8 4.8 0.00 0.00 0.00 65 1011.9
20260506212641 13 88 3.2 3.2 0.00 0.00 0.00 65 1011.9
20260506212136 13 157 3.2 4.8 0.00 0.00 0.00 65 1012.2
20260506211632 14 112 6.4 8.0 0.00 0.00 0.00 65 1011.8
20260506211129 14 35 4.8 4.8 0.00 0.00 0.00 66 1011.7
20260506210621 14 153 11.3 12.9 0.00 0.00 0.00 65 1011.6
20260506210117 14 329 8.0 11.3 0.00 0.00 0.00 65 1011.7
20260506205614 14 321 9.7 14.5 0.00 0.00 0.00 65 1011.7
20260506205114 14 335 9.7 12.9 0.00 0.00 0.00 63 1011.6
20260506204612 14 58 4.8 8.0 0.00 0.00 0.00 64 1011.7
20260506204109 15 295 6.4 9.7 0.00 0.00 0.00 63 1011.9
20260506203607 15 348 8.0 11.3 0.00 0.00 0.00 63 1011.6
20260506203103 15 318 8.0 11.3 0.00 0.00 0.00 63 1011.8
20260506202601 14 293 9.7 12.9 0.00 0.00 0.00 61 1011.6
20260506202057 15 102 4.8 4.8 0.00 0.00 0.00 62 1011.9
20260506201555 15 250 4.8 4.8 0.00 0.00 0.00 64 1012.0
20260506201051 14 329 11.3 12.9 0.00 0.00 0.00 64 1012.0
20260506200547 15 279 11.3 12.9 0.00 0.00 0.00 64 1011.7
20260506200044 15 67 12.9 16.1 0.00 0.00 0.00 64 1011.7
20260506195541 15 208 8.0 9.7 0.00 0.00 0.00 64 1011.8
20260506195037 15 351 8.0 9.7 0.00 0.00 0.00 63 1011.4
20260506194535 15 254 11.3 11.3 0.00 0.00 0.00 64 1011.7
20260506194031 15 73 4.8 8.0 0.00 0.00 0.00 64 1011.7
20260506193529 15 247 4.8 11.3 0.00 0.00 0.00 63 1011.7
20260506193026 15 314 9.7 14.5 0.00 0.00 0.00 62 1011.5
20260506192523 15 34 6.4 11.3 0.00 0.00 0.00 63 1011.5
20260506192019 15 338 9.7 12.9 0.00 0.00 0.00 63 1011.5
20260506191516 15 239 6.4 8.0 0.00 0.00 0.00 65 1011.4
20260506191012 15 223 11.3 12.9 0.00 0.00 0.00 64 1011.4
20260506190509 15 335 9.7 11.3 0.00 0.00 0.00 65 1011.4
20260506190006 15 197 3.2 4.8 0.00 0.00 0.00 65 1011.7
20260506185503 15 308 8.0 9.7 0.00 0.00 0.00 64 1011.3
20260506184959 15 324 4.8 4.8 0.00 0.00 0.00 64 1011.4
20260506184457 15 305 14.5 20.9 0.00 0.00 0.00 65 1011.6
20260506183954 15 26 4.8 8.0 0.00 0.00 0.00 62 1011.4
20260506183449 14 302 14.5 16.1 0.00 0.00 0.00 61 1011.5
20260506182946 14 318 6.4 11.3 0.00 0.00 0.00 65 1011.5
20260506182444 14 23 4.8 9.7 0.00 0.00 0.00 66 1011.5
20260506181941 14 41 8.0 11.3 0.00 0.00 0.00 63 1011.5
20260506181439 15 47 9.7 12.9 0.00 0.00 0.00 66 1011.4
20260506180930 14 36 3.2 3.2 0.00 0.00 0.00 65 1011.5
20260506180427 14 12 9.7 12.9 0.00 0.00 0.00 64 1011.7
20260506175924 14 306 11.3 14.5 0.00 0.00 0.00 64 1012.1
20260506175420 15 159 3.2 8.0 0.00 0.00 0.00 64 1011.7
20260506174916 14 67 6.4 9.7 0.00 0.00 0.00 69 1011.7
20260506174414 14 317 14.5 20.9 0.00 0.00 0.00 65 1011.9
20260506173911 14 295 4.8 8.0 0.00 0.00 0.00 66 1011.9
20260506173408 14 34 8.0 12.9 0.00 0.00 0.00 67 1011.9
20260506172906 14 119 4.8 4.8 0.00 0.00 0.00 68 1011.9
20260506172402 13 40 4.8 8.0 0.00 0.00 0.00 69 1011.9
20260506171900 13 336 3.2 4.8 0.00 0.00 0.00 71 1011.8
20260506171356 13 32 4.8 8.0 0.00 0.00 0.00 70 1012.0
20260506170854 13 41 4.8 8.0 0.00 0.00 0.00 70 1011.8
20260506170349 13 286 11.3 14.5 0.00 0.00 0.00 68 1012.0
20260506165849 13 46 4.8 4.8 0.00 0.00 0.00 70 1011.9
20260506165346 13 226 4.8 4.8 0.00 0.00 0.00 72 1011.9
20260506164837 13 341 6.4 8.0 0.00 0.00 0.00 72 1011.9
20260506164334 13 356 4.8 4.8 0.00 0.00 0.00 73 1012.0
20260506163832 13 30 8.0 11.3 0.00 0.00 0.00 72 1011.6
20260506163326 13 350 6.4 9.7 0.00 0.00 0.00 73 1011.9
20260506162821 12 22 9.7 12.9 0.00 0.00 0.00 74 1011.8
20260506162319 12 21 4.8 4.8 0.00 0.00 0.00 74 1011.9
20260506161817 12 172 3.2 4.8 0.00 0.00 0.00 75 1011.9
20260506161314 12 39 4.8 8.0 0.00 0.00 0.00 76 1012.0
20260506160811 12 46 9.7 14.5 0.00 0.00 0.00 77 1012.3
20260506160308 12 207 3.2 4.8 0.00 0.00 0.00 78 1011.9
20260506155807 12 294 9.7 12.9 0.00 0.00 0.00 77 1012.0
20260506155306 12 37 8.0 11.3 0.00 0.00 0.00 77 1011.8
20260506153415 11 48 3.2 4.8 0.00 0.00 0.00 79 1011.2
20260506152913 11 344 6.4 9.7 0.00 0.00 0.00 81 1011.4
20260506152410 11 349 3.2 4.8 0.00 0.00 0.00 82 1011.7
20260506151908 11 51 3.2 4.8 0.00 0.00 0.00 82 1011.5
20260506151405 11 299 8.0 9.7 0.00 0.00 0.00 83 1011.1
20260506150903 11 189 4.8 8.0 0.00 0.00 0.00 84 1011.2
20260506150358 11 8 8.0 9.7 0.00 0.00 0.00 85 1010.9
20260506145855 10 313 8.0 9.7 0.00 0.00 0.00 87 1011.2
20260506145351 10 28 8.0 11.3 0.00 0.00 0.00 89 1011.2
20260506144849 10 75 4.8 4.8 0.00 0.00 0.00 92 1010.6
20260506144345 10 343 8.0 11.3 0.00 0.00 0.00 94 1010.8
20260506143844 10 313 4.8 8.0 0.00 0.00 0.00 95 1010.8
20260506143341 9 341 8.0 11.3 0.00 0.00 0.00 97 1010.8
20260506142839 9 304 11.3 12.9 0.00 0.00 0.00 97 1010.7
20260506142337 9 303 8.0 11.3 0.00 0.00 0.00 98 1010.8
20260506141835 9 330 4.8 8.0 0.00 0.00 0.00 98 1010.7
20260506141333 9 338 9.7 11.3 0.00 0.00 0.00 98 1010.8
20260506140830 8 282 6.4 9.7 0.00 0.00 0.00 99 1010.4
20260506140327 8 339 9.7 11.3 0.00 0.00 0.00 99 1010.3
20260506135824 8 55 4.8 8.0 0.00 0.00 0.00 99 1010.5
20260506135320 8 280 9.7 11.3 0.00 0.00 0.00 99 1010.3
20260506134817 8 45 4.8 4.8 0.00 0.00 0.00 99 1010.2
20260506134313 8 325 6.4 8.0 0.00 0.00 0.00 99 1010.2
20260506133811 8 347 4.8 8.0 0.00 0.00 0.00 99 1010.1
20260506133307 8 106 4.8 8.0 0.00 0.00 0.00 99 1010.1
20260506132804 8 353 8.0 9.7 0.00 0.00 0.00 99 1010.1
20260506132301 8 17 6.4 8.0 0.00 0.00 0.00 99 1010.3
20260506131759 7 81 1.6 3.2 0.00 0.00 0.00 99 1009.9
20260506131255 7 34 9.7 12.9 0.00 0.00 0.00 99 1010.3
20260506130752 7 332 8.0 9.7 0.00 0.00 0.00 99 1010.0
20260506130249 7 294 6.4 8.0 0.00 0.00 0.00 99 1010.0
20260506125747 7 107 1.6 3.2 0.00 0.00 0.00 99 1010.0
20260506125245 7 274 4.8 8.0 0.00 0.00 0.00 99 1009.9
20260506124743 7 38 1.6 3.2 0.00 0.00 0.00 99 1009.6
20260506124240 7 25 0.0 1.6 0.00 0.00 0.00 99 1009.4
20260506123737 7 286 4.8 4.8 0.00 0.00 0.00 99 1009.6
20260506123236 7 218 4.8 4.8 0.00 0.00 0.00 99 1009.4
20260506122732 7 122 4.8 4.8 0.00 0.00 0.00 99 1009.5
20260506122230 7 315 8.0 9.7 0.00 0.00 0.00 99 1009.5
20260506121728 7 129 1.6 1.6 0.00 0.00 0.00 99 1009.4
20260506121224 7 301 8.0 11.3 0.00 0.00 0.00 99 1009.2
20260506120722 7 130 0.0 1.6 0.00 0.00 0.00 99 1009.4
20260506120219 7 79 4.8 8.0 0.00 0.00 0.00 99 1009.0
20260506115717 7 68 3.2 4.8 0.00 0.00 0.00 99 1008.6
20260506115215 7 18 11.3 14.5 0.00 0.00 0.00 99 1008.6
20260506114712 7 93 1.6 1.6 0.00 0.00 0.00 99 1008.7
20260506114210 7 22 4.8 8.0 0.00 0.00 0.00 99 1009.0
20260506113708 7 266 4.8 4.8 0.00 0.00 0.00 99 1008.9
20260506113205 7 57 4.8 9.7 0.00 0.00 0.00 99 1008.8
20260506112701 7 87 3.2 4.8 0.00 0.00 0.00 99 1008.8
20260506112159 7 20 6.4 8.0 0.00 0.00 0.00 99 1008.2
20260506111656 7 304 4.8 8.0 0.00 0.00 0.00 99 1008.3
20260506111154 7 54 6.4 8.0 0.00 0.00 0.00 99 1008.5
20260506110651 7 341 6.4 9.7 0.00 0.00 0.00 99 1008.1
20260506110149 7 299 6.4 8.0 0.00 0.00 0.00 99 1008.0
20260506105645 7 67 6.4 9.7 0.00 0.00 0.00 99 1007.6
20260506105142 7 330 9.7 12.9 0.00 0.00 0.00 99 1007.2
20260506104640 7 114 1.6 1.6 0.00 0.00 0.00 99 1007.5
20260506104137 7 40 3.2 4.8 0.00 0.00 0.00 99 1007.4
20260506103635 7 70 3.2 3.2 0.00 0.00 0.00 99 1007.2
20260506103131 7 307 4.8 8.0 0.00 0.00 0.00 99 1007.0
20260506102630 7 82 6.4 11.3 0.00 0.00 0.00 99 1006.9
20260506102127 7 79 1.6 3.2 0.00 0.00 0.00 99 1007.3
20260506101623 7 73 1.6 3.2 0.00 0.00 0.00 99 1007.2
20260506101120 7 281 6.4 8.0 0.00 0.00 0.00 99 1007.4
20260506100619 7 99 3.2 4.8 0.00 0.00 0.00 99 1007.5
20260506100116 7 270 4.8 8.0 0.00 0.00 0.00 99 1007.4
20260506095615 7 11 6.4 8.0 0.00 0.00 0.00 99 1007.2
20260506095111 7 260 4.8 4.8 0.00 0.00 0.00 99 1007.0
20260506094609 7 351 3.2 3.2 0.00 0.00 0.00 99 1007.1
20260506094106 7 78 3.2 3.2 0.00 0.00 0.00 99 1006.8
20260506093604 7 281 6.4 9.7 0.00 0.00 0.00 99 1006.7
20260506093101 7 17 4.8 8.0 0.00 0.00 0.00 99 1006.9
20260506092559 7 330 4.8 11.3 0.00 0.00 0.00 99 1006.9
20260506092056 7 194 4.8 4.8 0.00 0.00 0.00 99 1007.1
20260506091554 7 21 4.8 8.0 0.00 0.00 0.00 99 1006.9
20260506091051 7 39 4.8 4.8 0.00 0.00 0.00 99 1006.6
20260506090549 7 37 6.4 8.0 0.00 0.00 0.00 99 1006.5
20260506090045 7 37 4.8 4.8 0.00 0.00 0.00 99 1006.5
20260506085542 7 293 4.8 4.8 0.00 0.00 0.00 99 1006.9
20260506085038 7 332 9.7 12.9 0.00 0.00 0.00 99 1006.6
20260506084536 7 90 3.2 4.8 0.00 0.00 0.00 99 1006.6
20260506084031 7 67 4.8 8.0 0.00 0.00 0.00 99 1006.8
20260506083529 7 34 8.0 9.7 0.00 0.00 0.00 99 1006.4
20260506083026 7 8 11.3 22.5 0.00 0.00 0.00 99 1006.5
20260506082523 7 354 8.0 9.7 0.00 0.00 0.00 99 1006.3
20260506082019 7 48 8.0 11.3 0.00 0.00 0.00 99 1005.9
20260506081517 7 25 4.8 8.0 0.00 0.00 0.00 99 1006.1
20260506081014 8 38 8.0 11.3 0.00 0.00 0.00 99 1006.1
20260506080511 8 351 9.7 12.9 0.00 0.00 0.00 99 1006.2
20260506073455 8 32 11.3 12.9 0.00 0.00 0.00 99 1005.9
20260506072952 8 20 1.6 1.6 0.00 0.00 0.00 99 1005.8
20260506072449 8 352 8.0 9.7 0.00 0.00 0.00 99 1005.7
20260506071947 8 66 8.0 11.3 0.00 0.00 0.00 99 1005.8
20260506071445 9 227 9.7 14.5 0.00 0.00 0.00 99 1005.5
20260506070941 9 117 4.8 4.8 0.00 0.00 0.00 99 1005.6